Hourly Data Report for November 23, 2021

MOUNT FOREST (AUT)
ONTARIO
Current Station Operator: ECCC - MSC

43°59'00.000" N
80°45'00.000" W
414.50 m
6145504
71631
WLS

Download Data

Hourly Data (November 2021)
Hourly Data Report for November 23, 2021
TIME
LST
Temp Definition
°C
Dew Point Definition
°C
Rel Hum Definition
%
Precip. Amount Definition
mm

Wind Dir Definition
10's deg

Wind Spd Definition
km/h
Visibility Definition
km
Stn Press Definition
kPa
Hmdx Definition


Wind Chill Definition


Weather Definition


00:00 -4.4 -6.3 87 0.0 28 7   96.53   -8 LegendNANA
01:00 -4.7 -5.9 91 0.0 26 5   96.55   -7 LegendNANA
02:00 -3.0 -3.7 96 1.3 31 11   96.59   -7 LegendNANA
03:00 -3.1 -3.8 95 1.1 35 11   96.67   -7 LegendNANA
04:00 -3.2 -3.7 96 2.1 31 6   96.68   -6 LegendNANA
05:00 -3.3 -3.8 96 1.4 32 4   96.72   -5 LegendNANA
06:00 -3.4 -4.1 95 0.8 35 11   96.78   -8 LegendNANA
07:00 -3.8 -4.8 93 0.8 32 7   96.83   -7 LegendNANA
08:00 -3.8 -5.0 92 0.0 27 5   96.88   -6 LegendNANA
09:00 -4.2 -6.2 85 0.0 26 4   96.92   -6 LegendNANA
10:00 -3.1 -5.9 81 0.0 27 5   96.97   -5 LegendNANA
11:00 -2.1 -6.1 74 0.0 25 5   97.01   -4 LegendNANA
12:00 -1.8 -6.4 71 0.0 27 6   97.02   -4 LegendNANA
13:00 -1.9 -6.6 70 0.0 29 4   97.04   -3 LegendNANA
14:00 -1.5 -7.4 64 0.0 27 5   97.05   -3 LegendNANA
15:00 -1.4 -7.0 66 0.0 27 5   97.06   -3 LegendNANA
16:00 -2.0 -4.5 83 0.0 21 8   97.06   -5 LegendNANA
17:00 -2.2 -3.7 89 0.0 21 8   97.13   -5 LegendNANA
18:00 -2.8 -3.9 93 0.0 19 5   97.13   -5 LegendNANA
19:00 -3.5 -4.0 96 0.0 19 7   97.14   -6 LegendNANA
20:00 -4.2 -5.3 92 0.0 20 8   97.15   -8 LegendNANA
21:00 -4.1 -6.7 82 0.0 19 10   97.09   -8 LegendNANA
22:00 -4.6 -7.8 79 0.0 19 9   97.08   -8 LegendNANA
23:00 -4.8 -8.2 77 0.0 19 9   97.06   -9 LegendNANA

Notes on Data Quality.

Legend

  • E = Estimated
  • M = Missing
  • NA = Not Available*
  • [empty] = Indicates an unobserved value
Date modified: